Date_UTC,IAGA,MLT,MLAT,IGRF_DECL,SZA,N,E,Z
2015-08-15 08:00:00,FSP,22.72,67.47,20.04,104.11,-8.2,-11.2,-4.4
2015-08-15 08:01:00,FSP,22.74,67.47,20.04,104.12,-11.0,-10.2,-5.2
2015-08-15 08:02:00,FSP,22.76,67.47,20.04,104.12,-10.9,-9.0,-6.8
2015-08-15 08:03:00,FSP,22.77,67.47,20.04,104.13,-10.7,-6.8,-7.3
2015-08-15 08:04:00,FSP,22.79,67.47,20.04,104.13,-12.9,-6.5,-10.3
2015-08-15 08:05:00,FSP,22.81,67.47,20.04,104.13,-12.2,-5.5,-11.1
2015-08-15 08:06:00,FSP,22.82,67.47,20.04,104.13,-9.1,-2.9,-10.1
2015-08-15 08:07:00,FSP,22.84,67.47,20.04,104.14,-8.7,-2.6,-10.1
2015-08-15 08:08:00,FSP,22.86,67.47,20.04,104.14,-6.9,-5.1,-8.6
2015-08-15 08:09:00,FSP,22.87,67.47,20.04,104.14,-6.6,-6.8,-5.3
2015-08-15 08:10:00,FSP,22.89,67.47,20.04,104.14,-7.2,-7.3,-1.6
2015-08-15 08:11:00,FSP,22.91,67.47,20.04,104.14,-5.6,-8.1,1.5
2015-08-15 08:12:00,FSP,22.92,67.47,20.04,104.14,-7.3,-10.5,2.8
2015-08-15 08:13:00,FSP,22.94,67.47,20.04,104.13,-5.1,-12.8,3.6
2015-08-15 08:14:00,FSP,22.96,67.47,20.04,104.13,-2.7,-14.3,5.7
2015-08-15 08:15:00,FSP,22.97,67.47,20.04,104.13,-2.6,-15.1,7.1
2015-08-15 08:16:00,FSP,22.99,67.47,20.04,104.13,-4.2,-15.4,7.1
2015-08-15 08:17:00,FSP,23.01,67.47,20.04,104.12,-5.3,-14.9,6.8
2015-08-15 08:18:00,FSP,23.02,67.47,20.04,104.12,-4.0,-14.6,6.0
2015-08-15 08:19:00,FSP,23.04,67.47,20.04,104.12,-1.5,-15.6,5.2
2015-08-15 08:20:00,FSP,23.06,67.47,20.04,104.11,-3.0,-16.0,4.2
2015-08-15 08:21:00,FSP,23.07,67.47,20.04,104.11,-5.1,-14.7,3.6
2015-08-15 08:22:00,FSP,23.09,67.47,20.04,104.10,-9.0,-13.4,2.7
2015-08-15 08:23:00,FSP,23.11,67.47,20.04,104.09,-10.1,-13.2,0.3
2015-08-15 08:24:00,FSP,23.12,67.47,20.04,104.09,-9.9,-14.0,-0.2
2015-08-15 08:25:00,FSP,23.14,67.47,20.04,104.08,-14.1,-13.3,-0.3
2015-08-15 08:26:00,FSP,23.16,67.47,20.04,104.07,-15.2,-12.7,-0.8
2015-08-15 08:27:00,FSP,23.17,67.47,20.04,104.06,-15.0,-12.0,-0.9
2015-08-15 08:28:00,FSP,23.19,67.47,20.04,104.05,-16.4,-13.5,-2.5
2015-08-15 08:29:00,FSP,23.21,67.47,20.04,104.04,14.7,-2.8,0.1
2015-08-15 08:30:00,FSP,23.22,67.47,20.04,104.03,19.6,-1.1,8.1
2015-08-15 08:31:00,FSP,23.24,67.47,20.04,104.02,-58.3,-20.1,-13.3
2015-08-15 08:32:00,FSP,23.26,67.47,20.04,104.01,-69.9,-21.2,-24.0
2015-08-15 08:33:00,FSP,23.27,67.47,20.04,104.00,-74.2,-10.8,-11.0
2015-08-15 08:34:00,FSP,23.29,67.47,20.04,103.99,-101.5,-11.8,-16.5
2015-08-15 08:35:00,FSP,23.31,67.47,20.04,103.98,-86.8,-8.5,-5.0
2015-08-15 08:36:00,FSP,23.32,67.47,20.04,103.96,-89.1,-0.1,5.1
2015-08-15 08:37:00,FSP,23.34,67.47,20.04,103.95,-95.5,-8.2,8.5
2015-08-15 08:38:00,FSP,23.36,67.47,20.04,103.93,-97.1,-4.6,21.6
2015-08-15 08:39:00,FSP,23.37,67.47,20.04,103.92,-98.8,-19.1,31.8
2015-08-15 08:40:00,FSP,23.39,67.47,20.04,103.90,-123.3,-20.1,41.0
2015-08-15 08:41:00,FSP,23.41,67.47,20.04,103.89,-93.1,-7.4,40.9
2015-08-15 08:42:00,FSP,23.43,67.47,20.04,103.87,-118.1,3.4,64.0
2015-08-15 08:43:00,FSP,23.44,67.47,20.04,103.86,-120.6,0.0,92.6
2015-08-15 08:44:00,FSP,23.46,67.47,20.04,103.84,-155.1,-12.6,108.8
2015-08-15 08:45:00,FSP,23.48,67.47,20.04,103.82,-177.2,-35.9,109.4
2015-08-15 08:46:00,FSP,23.49,67.47,20.04,103.80,-183.6,-25.6,96.1
2015-08-15 08:47:00,FSP,23.51,67.47,20.04,103.78,-218.6,-20.3,86.0
2015-08-15 08:48:00,FSP,23.53,67.47,20.04,103.76,-197.5,-6.4,85.4
2015-08-15 08:49:00,FSP,23.54,67.47,20.04,103.74,-179.1,0.7,80.8
2015-08-15 08:50:00,FSP,23.56,67.47,20.04,103.72,-182.7,-4.1,78.2
2015-08-15 08:51:00,FSP,23.58,67.47,20.04,103.70,-189.3,-17.9,79.1
2015-08-15 08:52:00,FSP,23.59,67.47,20.04,103.68,-195.7,-14.7,86.6
2015-08-15 08:53:00,FSP,23.61,67.47,20.04,103.66,-203.1,0.2,90.4
2015-08-15 08:54:00,FSP,23.63,67.47,20.04,103.64,-200.7,21.0,91.1
2015-08-15 08:55:00,FSP,23.64,67.47,20.04,103.61,-198.4,21.2,85.8
2015-08-15 08:56:00,FSP,23.66,67.47,20.04,103.59,-177.8,34.1,94.2
2015-08-15 08:57:00,FSP,23.68,67.47,20.04,103.57,-167.3,44.0,104.3
2015-08-15 08:58:00,FSP,23.69,67.47,20.04,103.54,-175.2,47.0,99.7
2015-08-15 08:59:00,FSP,23.71,67.47,20.04,103.52,-165.8,39.8,100.0
2015-08-15 09:00:00,FSP,23.73,67.47,20.04,103.49,-160.9,45.9,99.3
2015-08-15 09:01:00,FSP,23.74,67.47,20.04,103.47,-168.9,37.4,90.6
2015-08-15 09:02:00,FSP,23.76,67.47,20.04,103.44,-174.6,31.1,73.8
2015-08-15 09:03:00,FSP,23.78,67.47,20.04,103.41,-152.1,52.3,75.6
2015-08-15 09:04:00,FSP,23.79,67.47,20.04,103.39,-142.4,61.9,69.3
2015-08-15 09:05:00,FSP,23.81,67.47,20.04,103.36,-155.0,80.6,81.8
2015-08-15 09:06:00,FSP,23.83,67.47,20.04,103.33,-168.1,74.5,94.1
2015-08-15 09:07:00,FSP,23.84,67.47,20.04,103.30,-171.1,70.9,104.0
2015-08-15 09:08:00,FSP,23.86,67.47,20.04,103.27,-165.4,62.4,111.6
2015-08-15 09:09:00,FSP,23.88,67.47,20.04,103.24,-161.4,50.2,109.1
2015-08-15 09:10:00,FSP,23.89,67.47,20.04,103.21,-167.7,54.9,110.8
2015-08-15 09:11:00,FSP,23.91,67.47,20.04,103.18,-170.2,39.2,115.4
2015-08-15 09:12:00,FSP,23.93,67.47,20.04,103.15,-167.4,38.8,123.8
2015-08-15 09:13:00,FSP,23.94,67.47,20.04,103.12,-168.5,15.8,123.7
2015-08-15 09:14:00,FSP,23.96,67.47,20.04,103.09,-162.8,33.2,112.9
2015-08-15 09:15:00,FSP,23.98,67.47,20.04,103.05,-176.7,27.8,124.4
2015-08-15 09:16:00,FSP,24.00,67.47,20.04,103.02,-182.2,6.2,129.1
2015-08-15 09:17:00,FSP,0.01,67.47,20.04,102.99,-186.1,-0.4,114.1
2015-08-15 09:18:00,FSP,0.03,67.47,20.04,102.95,-196.9,11.4,98.0
2015-08-15 09:19:00,FSP,0.05,67.47,20.04,102.92,-186.5,28.1,96.3
2015-08-15 09:20:00,FSP,0.06,67.47,20.04,102.88,-218.6,29.7,112.6
2015-08-15 09:21:00,FSP,0.08,67.47,20.04,102.85,-229.0,55.8,133.6
2015-08-15 09:22:00,FSP,0.10,67.47,20.04,102.81,-260.2,48.3,160.2
2015-08-15 09:23:00,FSP,0.11,67.47,20.04,102.77,-253.4,61.5,175.2
2015-08-15 09:24:00,FSP,0.13,67.47,20.04,102.74,-309.3,82.8,194.8
2015-08-15 09:25:00,FSP,0.15,67.47,20.04,102.70,-297.8,113.4,209.4
2015-08-15 09:26:00,FSP,0.16,67.47,20.04,102.66,-268.9,88.6,193.7
2015-08-15 09:27:00,FSP,0.18,67.47,20.04,102.62,-316.7,75.9,203.6
2015-08-15 09:28:00,FSP,0.20,67.47,20.04,102.58,-275.6,67.8,215.0
2015-08-15 09:29:00,FSP,0.21,67.47,20.04,102.54,-339.5,66.3,189.8
2015-08-15 09:30:00,FSP,0.23,67.47,20.04,102.50,-310.8,58.0,192.9
2015-08-15 09:31:00,FSP,0.25,67.47,20.04,102.46,-247.1,59.8,202.4
2015-08-15 09:32:00,FSP,0.26,67.47,20.04,102.42,-232.8,59.4,196.9
2015-08-15 09:33:00,FSP,0.28,67.47,20.04,102.38,-260.2,67.2,187.1
2015-08-15 09:34:00,FSP,0.30,67.47,20.04,102.34,-280.0,67.4,191.8
2015-08-15 09:35:00,FSP,0.31,67.47,20.04,102.30,-322.4,78.0,187.0
2015-08-15 09:36:00,FSP,0.33,67.47,20.04,102.25,-331.2,89.0,194.4
2015-08-15 09:37:00,FSP,0.35,67.47,20.04,102.21,-342.5,104.9,203.8
2015-08-15 09:38:00,FSP,0.36,67.47,20.04,102.17,-347.7,106.9,195.0
2015-08-15 09:39:00,FSP,0.38,67.47,20.04,102.12,-318.1,110.4,170.3
2015-08-15 09:40:00,FSP,0.40,67.47,20.04,102.08,-262.7,108.2,162.2
2015-08-15 09:41:00,FSP,0.41,67.47,20.04,102.03,-247.6,113.9,150.7
2015-08-15 09:42:00,FSP,0.43,67.47,20.04,101.99,-215.1,131.7,142.2
2015-08-15 09:43:00,FSP,0.45,67.47,20.04,101.94,-219.1,150.4,155.7
2015-08-15 09:44:00,FSP,0.46,67.47,20.04,101.89,-217.9,171.0,154.5
2015-08-15 09:45:00,FSP,0.48,67.47,20.04,101.85,-235.8,159.0,146.9
2015-08-15 09:46:00,FSP,0.50,67.47,20.04,101.80,-241.2,144.1,146.0
2015-08-15 09:47:00,FSP,0.51,67.47,20.04,101.75,-253.8,139.7,154.6
2015-08-15 09:48:00,FSP,0.53,67.47,20.04,101.70,-282.2,134.0,156.3
2015-08-15 09:49:00,FSP,0.55,67.47,20.04,101.65,-293.3,123.6,145.8
2015-08-15 09:50:00,FSP,0.56,67.47,20.04,101.61,-286.2,108.3,133.7
2015-08-15 09:51:00,FSP,0.58,67.47,20.04,101.56,-286.7,99.4,122.4
2015-08-15 09:52:00,FSP,0.60,67.47,20.04,101.51,-303.2,103.3,109.3
2015-08-15 09:53:00,FSP,0.62,67.47,20.04,101.45,-293.8,100.5,107.3
2015-08-15 09:54:00,FSP,0.63,67.47,20.04,101.40,-298.5,95.3,114.4
2015-08-15 09:55:00,FSP,0.65,67.47,20.04,101.35,-283.8,87.9,127.5
2015-08-15 09:56:00,FSP,0.67,67.47,20.04,101.30,-281.3,80.7,139.5
2015-08-15 09:57:00,FSP,0.68,67.47,20.04,101.25,-275.5,81.2,132.1
2015-08-15 09:58:00,FSP,0.70,67.47,20.04,101.19,-267.0,83.5,117.0
2015-08-15 09:59:00,FSP,0.72,67.47,20.04,101.14,-257.9,86.1,110.3
2015-08-15 10:00:00,FSP,0.73,67.47,20.04,101.09,-235.0,79.3,111.7
2015-08-15 10:01:00,FSP,0.75,67.47,20.04,101.03,-209.7,80.4,116.9
2015-08-15 10:02:00,FSP,0.77,67.47,20.04,100.98,-229.5,76.2,108.0
2015-08-15 10:03:00,FSP,0.78,67.47,20.04,100.92,-275.2,80.3,97.0
2015-08-15 10:04:00,FSP,0.80,67.47,20.04,100.87,-275.2,94.4,101.6
2015-08-15 10:05:00,FSP,0.82,67.47,20.04,100.81,-242.3,93.3,106.8
2015-08-15 10:06:00,FSP,0.83,67.47,20.04,100.76,-236.0,94.2,112.7
2015-08-15 10:07:00,FSP,0.85,67.47,20.04,100.70,-242.9,91.4,101.5
2015-08-15 10:08:00,FSP,0.87,67.47,20.04,100.64,-235.4,81.0,93.0
2015-08-15 10:09:00,FSP,0.88,67.47,20.04,100.58,-256.4,72.5,101.4
2015-08-15 10:10:00,FSP,0.90,67.47,20.04,100.53,-249.8,79.1,115.2
2015-08-15 10:11:00,FSP,0.92,67.47,20.04,100.47,-294.3,100.8,126.2
2015-08-15 10:12:00,FSP,0.93,67.47,20.04,100.41,-310.2,117.6,132.3
2015-08-15 10:13:00,FSP,0.95,67.47,20.04,100.35,-307.3,122.8,137.3
2015-08-15 10:14:00,FSP,0.97,67.47,20.04,100.29,-315.3,123.7,144.3
2015-08-15 10:15:00,FSP,0.98,67.47,20.04,100.23,-316.2,119.6,148.3
2015-08-15 10:16:00,FSP,1.00,67.47,20.04,100.17,-335.0,114.0,148.4
2015-08-15 10:17:00,FSP,1.02,67.47,20.04,100.11,-340.4,116.5,153.2
2015-08-15 10:18:00,FSP,1.03,67.47,20.04,100.04,-327.0,132.1,162.1
2015-08-15 10:19:00,FSP,1.05,67.47,20.04,99.98,-337.4,147.8,164.6
2015-08-15 10:20:00,FSP,1.07,67.47,20.04,99.92,-347.2,149.5,157.8
2015-08-15 10:21:00,FSP,1.08,67.47,20.04,99.86,-347.9,141.5,151.0
2015-08-15 10:22:00,FSP,1.10,67.47,20.04,99.79,-351.3,148.9,152.8
2015-08-15 10:23:00,FSP,1.12,67.47,20.04,99.73,-333.2,160.9,151.0
2015-08-15 10:24:00,FSP,1.13,67.47,20.04,99.67,-317.8,170.6,151.6
2015-08-15 10:25:00,FSP,1.15,67.47,20.04,99.60,-319.5,179.9,148.9
2015-08-15 10:26:00,FSP,1.17,67.47,20.04,99.54,-298.8,173.6,151.0
2015-08-15 10:27:00,FSP,1.18,67.47,20.04,99.47,-260.8,153.9,158.6
2015-08-15 10:28:00,FSP,1.20,67.47,20.04,99.41,-278.8,143.1,170.0
2015-08-15 10:29:00,FSP,1.21,67.47,20.04,99.34,-304.6,145.0,185.3
2015-08-15 10:30:00,FSP,1.23,67.47,20.04,99.27,-299.9,150.3,202.6
2015-08-15 10:31:00,FSP,1.25,67.47,20.04,99.21,-282.1,151.3,222.1
2015-08-15 10:32:00,FSP,1.26,67.47,20.04,99.14,-285.2,153.5,235.2
2015-08-15 10:33:00,FSP,1.28,67.47,20.04,99.07,-276.8,148.0,230.5
2015-08-15 10:34:00,FSP,1.30,67.47,20.04,99.00,-272.5,149.9,216.7
2015-08-15 10:35:00,FSP,1.31,67.47,20.04,98.93,-266.4,153.5,201.6
2015-08-15 10:36:00,FSP,1.33,67.47,20.04,98.87,-246.0,125.5,205.8
2015-08-15 10:37:00,FSP,1.35,67.47,20.04,98.80,-237.1,92.2,219.6
2015-08-15 10:38:00,FSP,1.36,67.47,20.04,98.73,-230.6,77.2,225.3
2015-08-15 10:39:00,FSP,1.38,67.47,20.04,98.66,-261.8,78.3,233.5
2015-08-15 10:40:00,FSP,1.40,67.47,20.04,98.59,-277.7,94.2,238.1
2015-08-15 10:41:00,FSP,1.41,67.47,20.04,98.52,-281.5,95.8,235.0
2015-08-15 10:42:00,FSP,1.43,67.47,20.04,98.44,-258.0,102.0,240.9
2015-08-15 10:43:00,FSP,1.45,67.47,20.04,98.37,-224.3,106.1,274.3
2015-08-15 10:44:00,FSP,1.46,67.47,20.04,98.30,-228.7,118.9,310.4
2015-08-15 10:45:00,FSP,1.48,67.47,20.04,98.23,-245.8,110.1,330.4
2015-08-15 10:46:00,FSP,1.50,67.47,20.04,98.16,-247.3,96.3,338.9
2015-08-15 10:47:00,FSP,1.51,67.47,20.04,98.08,-236.5,70.8,349.9
2015-08-15 10:48:00,FSP,1.53,67.47,20.04,98.01,-231.6,42.8,349.1
2015-08-15 10:49:00,FSP,1.54,67.47,20.04,97.93,-250.3,32.8,322.0
2015-08-15 10:50:00,FSP,1.56,67.47,20.04,97.86,-234.5,73.6,289.9
2015-08-15 10:51:00,FSP,1.58,67.47,20.04,97.79,-187.0,112.7,286.7
2015-08-15 10:52:00,FSP,1.59,67.47,20.04,97.71,-149.4,163.4,304.6
2015-08-15 10:53:00,FSP,1.61,67.47,20.04,97.64,-138.4,195.5,335.4
2015-08-15 10:54:00,FSP,1.63,67.47,20.04,97.56,-85.9,192.4,379.4
2015-08-15 10:55:00,FSP,1.64,67.47,20.04,97.48,-60.6,122.1,428.1
2015-08-15 10:56:00,FSP,1.66,67.47,20.04,97.41,-46.7,56.3,437.4
2015-08-15 10:57:00,FSP,1.68,67.47,20.04,97.33,-51.8,13.6,416.0
2015-08-15 10:58:00,FSP,1.69,67.47,20.04,97.25,-53.0,-3.0,388.2
2015-08-15 10:59:00,FSP,1.71,67.47,20.04,97.18,-35.0,-10.3,368.4
2015-08-15 11:00:00,FSP,1.72,67.47,20.04,97.10,-7.4,-13.3,352.1
2015-08-15 11:01:00,FSP,1.74,67.47,20.04,97.02,12.9,-15.0,334.0
2015-08-15 11:02:00,FSP,1.76,67.47,20.04,96.94,33.2,-21.2,318.0
2015-08-15 11:03:00,FSP,1.77,67.47,20.04,96.86,41.9,-30.9,303.6
2015-08-15 11:04:00,FSP,1.79,67.47,20.04,96.78,55.3,-37.0,286.6
2015-08-15 11:05:00,FSP,1.81,67.47,20.04,96.70,60.8,-44.4,274.5
2015-08-15 11:06:00,FSP,1.82,67.47,20.04,96.62,46.2,-29.8,260.8
2015-08-15 11:07:00,FSP,1.84,67.47,20.04,96.54,45.3,-9.4,269.0
2015-08-15 11:08:00,FSP,1.85,67.47,20.04,96.46,42.3,-23.8,269.1
2015-08-15 11:09:00,FSP,1.87,67.47,20.04,96.38,36.7,7.5,253.6
2015-08-15 11:10:00,FSP,1.89,67.47,20.04,96.30,22.7,-4.4,261.0
2015-08-15 11:11:00,FSP,1.90,67.47,20.04,96.22,43.1,8.7,255.5
2015-08-15 11:12:00,FSP,1.92,67.47,20.04,96.13,16.2,-4.0,243.9
2015-08-15 11:13:00,FSP,1.93,67.47,20.04,96.05,41.0,20.2,243.5
2015-08-15 11:14:00,FSP,1.95,67.47,20.04,95.97,42.0,28.1,248.2
2015-08-15 11:15:00,FSP,1.97,67.47,20.04,95.89,36.6,16.3,252.8
2015-08-15 11:16:00,FSP,1.98,67.47,20.04,95.80,34.0,23.7,266.6
2015-08-15 11:17:00,FSP,2.00,67.47,20.04,95.72,22.9,16.1,262.1
2015-08-15 11:18:00,FSP,2.02,67.47,20.04,95.63,15.4,19.8,274.3
2015-08-15 11:19:00,FSP,2.03,67.47,20.04,95.55,5.3,21.9,269.3
2015-08-15 11:20:00,FSP,2.05,67.47,20.04,95.47,12.2,57.6,260.7
2015-08-15 11:21:00,FSP,2.06,67.47,20.04,95.38,-0.5,87.0,271.2
2015-08-15 11:22:00,FSP,2.08,67.47,20.04,95.29,-5.1,118.0,273.0
2015-08-15 11:23:00,FSP,2.10,67.47,20.04,95.21,-13.7,153.2,294.7
2015-08-15 11:24:00,FSP,2.11,67.47,20.04,95.12,10.6,162.3,330.5
2015-08-15 11:25:00,FSP,2.13,67.47,20.04,95.04,5.7,137.5,369.7
2015-08-15 11:26:00,FSP,2.14,67.47,20.04,94.95,-21.2,109.2,403.2
2015-08-15 11:27:00,FSP,2.16,67.47,20.04,94.86,-110.5,127.8,453.8
2015-08-15 11:28:00,FSP,2.17,67.47,20.04,94.78,-289.7,224.0,622.0
2015-08-15 11:29:00,FSP,2.19,67.47,20.04,94.69,-508.6,289.5,743.4
2015-08-15 11:30:00,FSP,2.21,67.47,20.04,94.60,-742.9,383.2,723.0
2015-08-15 11:31:00,FSP,2.22,67.47,20.04,94.51,-886.6,297.7,684.2
2015-08-15 11:32:00,FSP,2.24,67.47,20.04,94.42,-1188.5,270.8,525.0
2015-08-15 11:33:00,FSP,2.25,67.47,20.04,94.33,-1206.6,254.0,307.3
2015-08-15 11:34:00,FSP,2.27,67.47,20.04,94.24,-1161.8,466.7,155.8
2015-08-15 11:35:00,FSP,2.29,67.47,20.04,94.15,-935.6,598.8,68.9
2015-08-15 11:36:00,FSP,2.30,67.47,20.04,94.06,-1018.0,578.4,184.9
2015-08-15 11:37:00,FSP,2.32,67.47,20.04,93.97,-1015.8,498.0,125.4
2015-08-15 11:38:00,FSP,2.33,67.47,20.04,93.88,-1024.6,444.2,134.8
2015-08-15 11:39:00,FSP,2.35,67.47,20.04,93.79,-1119.5,404.5,126.8
2015-08-15 11:40:00,FSP,2.36,67.47,20.04,93.70,-1084.4,321.1,97.5
2015-08-15 11:41:00,FSP,2.38,67.47,20.04,93.61,-1033.3,327.6,107.9
2015-08-15 11:42:00,FSP,2.40,67.47,20.04,93.52,-1039.1,330.9,109.6
2015-08-15 11:43:00,FSP,2.41,67.47,20.04,93.43,-995.5,351.4,39.4
2015-08-15 11:44:00,FSP,2.43,67.47,20.04,93.34,-999.1,398.8,37.6
2015-08-15 11:45:00,FSP,2.44,67.47,20.04,93.24,-1044.6,408.3,44.6
2015-08-15 11:46:00,FSP,2.46,67.47,20.04,93.15,-1078.9,391.1,55.7
2015-08-15 11:47:00,FSP,2.47,67.47,20.04,93.06,-1060.2,372.9,107.4
2015-08-15 11:48:00,FSP,2.49,67.47,20.04,92.96,-1029.2,369.5,150.9
2015-08-15 11:49:00,FSP,2.51,67.47,20.04,92.87,-1057.2,443.9,229.0
2015-08-15 11:50:00,FSP,2.52,67.47,20.04,92.78,-964.6,490.6,374.1
2015-08-15 11:51:00,FSP,2.54,67.47,20.04,92.68,-957.5,443.3,565.2
2015-08-15 11:52:00,FSP,2.55,67.47,20.04,92.59,-930.1,403.2,639.7
2015-08-15 11:53:00,FSP,2.57,67.47,20.04,92.49,-876.4,448.4,550.8
2015-08-15 11:54:00,FSP,2.58,67.47,20.04,92.40,-830.6,461.0,608.7
2015-08-15 11:55:00,FSP,2.60,67.47,20.04,92.30,-726.9,531.8,532.0
2015-08-15 11:56:00,FSP,2.61,67.47,20.04,92.21,-643.5,553.4,548.4
2015-08-15 11:57:00,FSP,2.63,67.47,20.04,92.11,-621.8,545.9,572.1
2015-08-15 11:58:00,FSP,2.64,67.47,20.04,92.01,-598.7,503.8,618.7
2015-08-15 11:59:00,FSP,2.66,67.47,20.04,91.92,-495.2,495.5,651.8
2015-08-15 12:00:00,FSP,2.68,67.47,20.04,91.82,-446.1,384.3,777.9
2015-08-15 12:01:00,FSP,2.69,67.47,20.04,91.72,-414.8,248.2,792.4
2015-08-15 12:02:00,FSP,2.71,67.47,20.04,91.63,-402.6,145.4,760.1
2015-08-15 12:03:00,FSP,2.72,67.47,20.04,91.53,-381.7,80.4,719.2
2015-08-15 12:04:00,FSP,2.74,67.47,20.04,91.43,-316.6,67.1,683.7
2015-08-15 12:05:00,FSP,2.75,67.47,20.04,91.33,-310.1,66.7,639.8
2015-08-15 12:06:00,FSP,2.77,67.47,20.04,91.24,-252.2,56.0,613.2
2015-08-15 12:07:00,FSP,2.78,67.47,20.04,91.14,-214.9,44.8,580.6
2015-08-15 12:08:00,FSP,2.80,67.47,20.04,91.04,-192.9,-10.0,534.3
2015-08-15 12:09:00,FSP,2.81,67.47,20.04,90.94,-199.8,-55.0,495.2
2015-08-15 12:10:00,FSP,2.83,67.47,20.04,90.84,-242.5,-80.7,436.1
2015-08-15 12:11:00,FSP,2.84,67.47,20.04,90.74,-284.5,-75.9,375.4
2015-08-15 12:12:00,FSP,2.86,67.47,20.04,90.64,-297.3,-33.8,324.2
2015-08-15 12:13:00,FSP,2.87,67.47,20.04,90.54,-305.7,31.7,284.0
2015-08-15 12:14:00,FSP,2.89,67.47,20.04,90.44,-321.2,137.6,236.6
2015-08-15 12:15:00,FSP,2.90,67.47,20.04,90.34,-251.1,215.5,187.7
2015-08-15 12:16:00,FSP,2.92,67.47,20.04,90.24,-190.4,258.7,226.2
2015-08-15 12:17:00,FSP,2.93,67.47,20.04,90.14,-184.1,232.8,288.3
2015-08-15 12:18:00,FSP,2.95,67.47,20.04,90.04,-136.0,221.3,315.6
2015-08-15 12:19:00,FSP,2.96,67.47,20.04,89.94,-92.4,187.5,347.9
2015-08-15 12:20:00,FSP,2.98,67.47,20.04,89.83,-89.1,188.0,329.2
2015-08-15 12:21:00,FSP,3.00,67.47,20.04,89.73,-123.8,160.4,317.4
2015-08-15 12:22:00,FSP,3.01,67.47,20.04,89.63,-160.6,141.0,304.3
2015-08-15 12:23:00,FSP,3.03,67.47,20.04,89.53,-214.2,127.9,277.0
2015-08-15 12:24:00,FSP,3.04,67.47,20.04,89.43,-240.5,161.3,253.8
2015-08-15 12:25:00,FSP,3.06,67.47,20.04,89.32,-193.0,202.4,252.1
2015-08-15 12:26:00,FSP,3.07,67.47,20.04,89.22,-164.6,221.3,262.5
2015-08-15 12:27:00,FSP,3.09,67.47,20.04,89.12,-152.8,217.9,272.7
2015-08-15 12:28:00,FSP,3.10,67.47,20.04,89.01,-134.2,199.3,292.3
2015-08-15 12:29:00,FSP,3.12,67.47,20.04,88.91,-182.1,183.7,330.3
2015-08-15 12:30:00,FSP,3.13,67.47,20.04,88.81,-202.1,216.0,366.5
2015-08-15 12:31:00,FSP,3.15,67.47,20.04,88.70,-213.0,232.9,396.8
2015-08-15 12:32:00,FSP,3.16,67.47,20.04,88.60,-280.6,214.4,420.6
2015-08-15 12:33:00,FSP,3.17,67.47,20.04,88.49,-349.4,201.7,433.1
2015-08-15 12:34:00,FSP,3.19,67.47,20.04,88.39,-401.9,203.3,431.6
2015-08-15 12:35:00,FSP,3.20,67.47,20.04,88.28,-428.0,246.5,416.9
2015-08-15 12:36:00,FSP,3.22,67.47,20.04,88.18,-438.2,261.5,400.1
2015-08-15 12:37:00,FSP,3.23,67.47,20.04,88.07,-420.4,278.8,415.7
2015-08-15 12:38:00,FSP,3.25,67.47,20.04,87.97,-363.5,306.1,458.2
2015-08-15 12:39:00,FSP,3.26,67.47,20.04,87.86,-323.3,337.9,529.1
2015-08-15 12:40:00,FSP,3.28,67.47,20.04,87.76,-303.5,335.0,622.8
2015-08-15 12:41:00,FSP,3.29,67.47,20.04,87.65,-278.0,274.4,694.3
2015-08-15 12:42:00,FSP,3.31,67.47,20.04,87.54,-318.5,218.0,719.6
2015-08-15 12:43:00,FSP,3.32,67.47,20.04,87.44,-307.1,194.8,696.0
2015-08-15 12:44:00,FSP,3.34,67.47,20.04,87.33,-282.5,163.7,674.8
2015-08-15 12:45:00,FSP,3.35,67.47,20.04,87.22,-258.0,152.5,628.9
2015-08-15 12:46:00,FSP,3.37,67.47,20.04,87.12,-231.7,134.1,592.0
2015-08-15 12:47:00,FSP,3.38,67.47,20.04,87.01,-227.3,95.1,563.5
2015-08-15 12:48:00,FSP,3.40,67.47,20.04,86.90,-240.7,84.4,550.4
2015-08-15 12:49:00,FSP,3.41,67.47,20.04,86.79,-237.3,92.2,546.3
2015-08-15 12:50:00,FSP,3.43,67.47,20.04,86.69,-250.2,82.3,537.7
2015-08-15 12:51:00,FSP,3.44,67.47,20.04,86.58,-265.8,96.4,521.2
2015-08-15 12:52:00,FSP,3.46,67.47,20.04,86.47,-279.5,109.2,520.1
2015-08-15 12:53:00,FSP,3.47,67.47,20.04,86.36,-259.6,98.5,519.3
2015-08-15 12:54:00,FSP,3.49,67.47,20.04,86.25,-235.7,107.4,514.2
2015-08-15 12:55:00,FSP,3.50,67.47,20.04,86.14,-213.9,97.5,508.6
2015-08-15 12:56:00,FSP,3.51,67.47,20.04,86.03,-204.6,77.2,515.9
2015-08-15 12:57:00,FSP,3.53,67.47,20.04,85.93,-193.6,73.2,517.0
2015-08-15 12:58:00,FSP,3.54,67.47,20.04,85.82,-168.7,54.5,517.4
2015-08-15 12:59:00,FSP,3.56,67.47,20.04,85.71,-141.1,42.9,509.3
2015-08-15 13:00:00,FSP,3.57,67.47,20.04,85.60,-128.7,41.3,496.8
